Regional Weather Roundup
Issued by NWS

Home | Current Version | Previous Version | Text Only | Print | Product List | Glossary On
Versions: 1 2 3 4 5 6 7 8 9 10 11 12 13 14 15 16 17 18 19 20 21 22 23 24 25 26 27 28 29 30 31 32 33 34 35 36 37 38 39 40 41 42 43 44 45 46 47 48 49 50
000
ASUS43 KTOP 071308
RWRKS

WEATHER ROUNDUP FOR KANSAS
NATIONAL WEATHER SERVICE GOODLAND KS
800 AM CDT TUE JUL 07 2015

NOTE:  "FAIR" INDICATES FEW OR NO CLOUDS BELOW 12,000 FEET WITH NO
SIGNIFICANT WEATHER AND/OR OBSTRUCTIONS TO VISIBILITY.

KSZ001>006-013>018-027>032-041>047-071400-
NORTHWEST KANSAS

CITY           SKY/WX    TMP DP  RH WIND       PRES   REMARKS
GOODLAND       SUNNY     56  52  86 E5        30.24R FOG
HAYS           SUNNY     61  50  67 NE17      30.16R
HILL CITY      SUNNY     61  55  81 NE10      30.20R HAZE
RUSSELL        MOSUNNY   61  55  81 NE13      30.13R HAZE
$$

KSZ061>065-074>080-084>089-071400-
SOUTHWEST KANSAS

CITY           SKY/WX    TMP DP  RH WIND       PRES   REMARKS
DODGE CITY     PTSUNNY   60  55  83 N14       30.14R HAZE
ELKHART          N/A     62  52  70 NE13        N/A
GARDEN CITY    PTSUNNY   60  54  80 NE14      30.17R HAZE
GREAT BEND     CLOUDY    61  54  77 NE14      30.13S
LIBERAL        CLOUDY    64  54  68 NE13G20   30.17R
PRATT          CLOUDY    64  57  77 NE17      30.10R HAZE
$$

KSZ066>073-081>083-090>101-071400-
SOUTHEAST KANSAS

CITY           SKY/WX    TMP DP  RH WIND       PRES   REMARKS
CHANUTE        CLOUDY    65  63  93 N16G22    29.99S FOG
COFFEYVILLE    CLOUDY    71  69  93 N12G20    29.95S
HUTCHINSON     CLOUDY    66  60  81 N12       30.07R HAZE
MEDICINE LODGE   N/A     64  62  93 NE9       30.06R
NEWTON         CLOUDY    64  57  77 NE13G18   30.08R
PARSONS        CLOUDY    69  67  93 N9        29.98R
WICHITA INTL   LGT RAIN  65  62  90 N14       30.04R VSB 1
WICHITA JABRA  LGT RAIN  64  63  96 NE16      30.04R FOG
WICHITA MCCONL LGT RAIN  64  62  93 NE16      30.04R FOG
WINFIELD       LGT RAIN  64  62  93 NE14      30.02S FOG
$$

KSZ007>012-019>026-033>040-048>060-102>105-071400-
NORTHEAST KANSAS

CITY           SKY/WX    TMP DP  RH WIND       PRES   REMARKS
CONCORDIA      MOSUNNY   61  52  72 NE9       30.15R
EMPORIA        CLOUDY    62  61  96 NE10      30.05R FOG
LAWRENCE       CLOUDY    65  62  90 N6        30.05R FOG
MANHATTAN      PTSUNNY   63  54  72 NE15      30.10R
MARYSVILLE     MOSUNNY   61  52  72 NE12      30.12S
OLATHE IND     LGT RAIN  62  61  96 NE8       30.05R FOG
OLATHE EXE     CLOUDY    61  59  93 NE10      30.03R FOG
SALINA         PTSUNNY   65  54  67 NE18G28   30.11R HAZE
TOPEKA BILLARD CLOUDY    63  59  87 N9        30.06R FOG
TOPEKA FORBES  CLOUDY    64  59  83 N13G20    30.06R HAZE
$$


USA.gov is the U.S. government's official web portal to all federal, state and local government web resources and services.